Home > Weather > Glasgow > Past weeks

Flag for United Kingdom Past Weather in Glasgow, Scotland, United Kingdom — Yesterday and Last 2 Weeks

Now
52 °F

Cool.


Feels Like: 50 °F
Forecast: 51 / 62 °F
Wind: 6 mph from West

Location: Glasgow Airport

Current Time: Jul 29, 2016 at 3:07:39 AM

Latest Report: Jul 29, 2016 at 2:20 AM


Visibility: N/A

Pressure: 29.77 "Hg

Humidity: 100%

Dew Point: 52 °F

Location of GlasgowLocation

Past Weather in Glasgow — Graph

°F

Glasgow Temperature Yesterday

Maximum temperature yesterday: 64 °F (at 12:50 PM)
Minimum temperature yesterday: 52 °F (at 4:50 AM)
Average temperature yesterday: 58 °F

High & Low Weather Summary for the Past Weeks

 TemperatureHumidityPressure
High82 °F (Jul 19, 3:20 PM)100% (Jul 14, 3:20 AM)30.24 "Hg (Jul 14, 3:20 AM)
Low45 °F (Jul 14, 1:20 AM)48% (Jul 19, 5:20 PM)29.68 "Hg (Jul 20, 9:20 AM)
Average60 °F83%29.99 "Hg
* Reported Jul 14 1:20 AM — Jul 29 1:50 AM, Glasgow, Weather by CustomWeather, © 2016

Note: Actual official high and low records may vary slightly from our data, if they occured in-between our weather recording intervals... More about our weather records

Advertising

Glasgow Weather History for the Previous 24 Hours

Scroll right to see more
 ConditionsComfort  
Time TempWeatherWind HumidityBarometerVisibility
1:50 AM
Fri, Jul 29
54 °FCool.3 mph94%29.77 "HgN/A
1:20 AM54 °FCool.6 mph94%29.80 "HgN/A
12:50 AM54 °FCool.5 mph100%29.80 "HgN/A
12:20 AM54 °FCool.5 mph100%29.80 "HgN/A
11:50 PM
Thu, Jul 28
55 °FPassing clouds.3 mph94%29.80 "HgN/A
11:20 PM57 °FPassing clouds.2 mph94%29.77 "HgN/A
10:50 PM57 °FOvercast.2 mph94%29.77 "HgN/A
10:20 PM59 °FOvercast.3 mph88%29.77 "HgN/A
9:50 PM57 °FOvercast.2 mph94%29.77 "HgN/A
9:20 PM59 °FOvercast.2 mph88%29.77 "HgN/A
8:50 PM61 °FOvercast.3 mph88%29.77 "HgN/A
8:20 PM61 °FOvercast.3 mph88%29.77 "HgN/A
7:50 PM61 °FOvercast.5 mph88%29.77 "HgN/A
7:20 PM61 °FOvercast.5 mph83%29.77 "HgN/A
6:50 PM61 °FPartly sunny.3 mph88%29.77 "HgN/A
6:20 PM61 °FMore clouds than sun.3 mph88%29.77 "HgN/A
5:50 PM61 °FScattered clouds.5 mph88%29.77 "HgN/A
5:20 PM61 °FLow clouds.5 mph88%29.77 "HgN/A
4:50 PM59 °FMostly cloudy.5 mph94%29.80 "Hg4 mi
4:20 PM59 °FDrizzle. Mostly cloudy.2 mph94%29.80 "Hg3 mi
3:50 PM59 °FDrizzle. Mostly cloudy.3 mph88%29.80 "Hg2 mi
3:20 PM61 °FDrizzle. Overcast.2 mph77%29.80 "HgN/A
2:50 PM63 °FLight rain. Overcast.1 mph73%29.80 "HgN/A
2:20 PM63 °FOvercast.3 mph73%29.80 "HgN/A
1:50 PM63 °FOvercast.3 mph73%29.80 "HgN/A
1:20 PM64 °FPartly sunny.2 mph68%29.80 "HgN/A
12:50 PM64 °FMostly cloudy.3 mph68%29.80 "HgN/A
12:20 PM63 °FPartly sunny.5 mph68%29.80 "HgN/A
11:50 AM61 °FPartly sunny.2 mph72%29.83 "HgN/A
11:20 AM61 °FMostly cloudy.5 mph72%29.83 "HgN/A
10:50 AM59 °FOvercast.3 mph77%29.83 "HgN/A
10:20 AM59 °FMore clouds than sun.3 mph77%29.86 "HgN/A
9:50 AM59 °FCloudy.1 mph77%29.86 "HgN/A
9:20 AM57 °FMostly cloudy.2 mph82%29.86 "HgN/A
8:50 AM57 °FPartly sunny.2 mph82%29.86 "HgN/A
8:20 AM57 °FPartly sunny.3 mph82%29.86 "HgN/A
7:50 AM55 °FPartly sunny.1 mph88%29.86 "HgN/A
7:20 AM55 °FOvercast.2 mph88%29.86 "HgN/A
6:50 AM54 °FMostly cloudy.2 mph94%29.86 "HgN/A
6:20 AM54 °FOvercast.2 mph88%29.89 "HgN/A
5:50 AM54 °FOvercast.5 mph88%29.89 "HgN/A
5:20 AM54 °FOvercast.6 mph82%29.89 "HgN/A
4:50 AM52 °FOvercast.3 mph94%29.89 "HgN/A
4:20 AM54 °FOvercast.3 mph82%29.92 "HgN/A
3:50 AM54 °FOvercast.8 mph82%29.92 "HgN/A
3:20 AM54 °FOvercast.6 mph82%29.92 "HgN/A
Weather by CustomWeather, © 2016

See weather overviewHow to use our weather pages